Amarillo, TX

1:43 PM CST on November 21, 2019 (GMT -0600)
Amarillo International

Weather History for KAMA - October, 2019

Change the Weather History Date:

Wednesday, October 23, 2019

  Actual Average Record
Temperature  
Mean Temperature 56 °F 56 °F  
Max Temperature 72 °F 70 °F 90 °F (2003)
Min Temperature 39 °F 42 °F 23 °F (1906)
Degree Days  
Heating Degree Days 9 9  
Month to date heating degree days 154 147  
Since 1 July heating degree days 154 191  
Cooling Degree Days 0 0  
Month to date cooling degree days 26 25  
Year to date cooling degree days 1700 1395  
Growing Degree Days 6 (Base 50)    
Moisture  
Dew Point 27 °F    
Average Humidity 39    
Maximum Humidity 59    
Minimum Humidity 18    
Precipitation  
Precipitation 0.00 in 0.04 in 1.34 in (1941)
Month to date precipitation 5.38 1.32  
Year to date precipitation 23.47 18.51  
Sea Level Pressure  
Sea Level Pressure 29.89 in    
Wind  
Wind Speed 15 mph (NE)    
Max Wind Speed 26 mph    
Max Gust Speed 33 mph    
Visibility 10 miles    
Events      
T = Trace of Precipitation, MM = Missing Value Source: NWS Daily Summary

Daily Weather History Graph

Daily Weather History Graph

Search for Another Location

Airport or City:

Astronomy

Oct. 23, 2019 Rise Set
Actual Time 7:59 AM CDT 7:02 PM CDT
Civil Twilight 7:33 AM CDT 7:27 PM CDT
Nautical Twilight 7:04 AM CDT 7:57 PM CDT
Astronomical Twilight 6:34 AM CDT 8:26 PM CDT
Moon 2:36 AM CDT (10/23) 4:39 PM CDT (10/23)
Length of Visible Light 11h 54m
Length of Day
11h 02m
Waning Crescent, 26% of the Moon is Illuminated
Oct 23
Waning Crescent
Oct 27
New
Nov 4
First Quarter
Nov 12
Full
Nov 19
Last Quarter

Hourly Weather History & Observations

Time (CDT) Temp. Windchill Dew Point Humidity Pressure Visibility Wind Dir Wind Speed Gust Speed Precip Events Conditions
12:53 AM 50.0 °F - 26.1 °F 39% 29.90 in 10.0 mi South 16.1 mph - N/A   Clear
1:53 AM 48.0 °F - 25.0 °F 41% 29.86 in 10.0 mi South 11.5 mph - N/A   Clear
2:53 AM 44.1 °F 39.0 °F 25.0 °F 47% 29.86 in 10.0 mi South 9.2 mph - N/A   Clear
3:53 AM 44.1 °F 39.0 °F 26.1 °F 49% 29.84 in 10.0 mi SSW 9.2 mph - N/A   Clear
4:53 AM 50.0 °F - 25.0 °F 38% 29.81 in 10.0 mi SW 15.0 mph - N/A   Clear
5:53 AM 48.0 °F - 25.0 °F 41% 29.81 in 10.0 mi WSW 10.4 mph - N/A   Clear
6:53 AM 44.1 °F 38.6 °F 26.1 °F 49% 29.84 in 10.0 mi WSW 10.4 mph - N/A   Clear
7:53 AM 39.9 °F 33.4 °F 27.0 °F 60% 29.87 in 10.0 mi SW 10.4 mph - N/A   Clear
8:53 AM 46.9 °F - 28.9 °F 50% 29.88 in 10.0 mi West 6.9 mph - N/A   Clear
9:53 AM 57.9 °F - 26.1 °F 30% 29.89 in 10.0 mi NNW 13.8 mph - N/A   Clear
10:53 AM 63.0 °F - 24.1 °F 23% 29.89 in 10.0 mi North 17.3 mph - N/A   Clear
11:53 AM 69.1 °F - 25.0 °F 19% 29.90 in 10.0 mi NNE 23.0 mph 29.9 mph N/A   Clear
12:53 PM 71.1 °F - 26.1 °F 19% 29.89 in 10.0 mi NNE 23.0 mph 28.8 mph N/A   Clear
1:53 PM 69.1 °F - 27.0 °F 21% 29.90 in 10.0 mi NE 23.0 mph 31.1 mph N/A   Clear
2:53 PM 70.0 °F - 28.0 °F 21% 29.89 in 10.0 mi NE 24.2 mph 33.4 mph N/A   Clear
3:53 PM 69.1 °F - 28.0 °F 22% 29.88 in 10.0 mi NE 19.6 mph 26.5 mph N/A   Clear
4:53 PM 69.1 °F - 28.9 °F 22% 29.87 in 10.0 mi ENE 17.3 mph - N/A   Clear
5:53 PM 66.9 °F - 28.9 °F 24% 29.88 in 10.0 mi ENE 17.3 mph 21.9 mph N/A   Clear
6:53 PM 61.0 °F - 30.0 °F 31% 29.92 in 10.0 mi ENE 10.4 mph - N/A   Clear
7:53 PM 55.0 °F - 30.9 °F 40% 29.98 in 10.0 mi ENE 8.1 mph - N/A   Clear
8:53 PM 48.0 °F - 32.0 °F 54% 30.01 in 10.0 mi NNE 11.5 mph - N/A   Clear
9:53 PM 52.0 °F - 30.0 °F 43% 29.96 in 10.0 mi ENE 15.0 mph - N/A   Clear
10:53 PM 51.1 °F - 28.9 °F 43% 29.96 in 10.0 mi ENE 18.4 mph 25.3 mph N/A   Clear
11:53 PM 52.0 °F - 28.9 °F 41% 29.97 in 10.0 mi NE 15.0 mph 24.2 mph N/A   Clear